| time (UTC) | temp F | wind direction | speed MPH | gust MPH | rain 1hr in | rain 24hr in | rain mn in | humidity % | barometer mb |
| 20260505024553 | 62 | 360 | 2.0 | 5.0 | 0.00 | 0.00 | 0.00 | 81 | 1002.5 |
| 20260505023100 | 63 | 360 | 0.0 | 0.0 | 0.00 | 0.00 | 0.00 | 79 | 1001.8 |
| 20260505021554 | 65 | 360 | 0.0 | 0.0 | 0.00 | 0.00 | 0.00 | 77 | 1001.7 |
| 20260505020052 | 66 | 360 | 0.0 | 0.0 | 0.00 | 0.00 | 0.00 | 75 | 1001.4 |
| 20260505014551 | 67 | 360 | 0.0 | 0.0 | 0.00 | 0.00 | 0.00 | 73 | 1001.1 |
| 20260505013052 | 69 | 360 | 0.0 | 0.0 | 0.00 | 0.00 | 0.00 | 71 | 1001.0 |
| 20260505011551 | 71 | 360 | 0.0 | 1.0 | 0.00 | 0.00 | 0.00 | 68 | 1000.8 |
| 20260505010050 | 74 | 360 | 1.0 | 2.0 | 0.00 | 0.00 | 0.00 | 62 | 1000.7 |
| 20260505004550 | 76 | 360 | 0.0 | 2.0 | 0.00 | 0.00 | 0.00 | 58 | 1000.5 |
| 20260505003049 | 78 | 360 | 1.0 | 3.0 | 0.00 | 0.00 | 0.00 | 52 | 1000.4 |
| 20260505001553 | 78 | 265 | 1.0 | 4.0 | 0.00 | 0.00 | 0.00 | 51 | 1000.3 |
| 20260505000054 | 79 | 287 | 0.0 | 5.0 | 0.00 | 0.00 | 0.00 | 52 | 1000.4 |
| 20260504234557 | 79 | 173 | 2.0 | 4.0 | 0.00 | 0.00 | 0.00 | 51 | 1000.4 |
| 20260504233047 | 79 | 229 | 2.0 | 5.0 | 0.00 | 0.00 | 0.00 | 50 | 1000.4 |
| 20260504231558 | 80 | 213 | 2.0 | 6.0 | 0.00 | 0.00 | 0.00 | 50 | 1000.5 |
| 20260504230046 | 80 | 318 | 2.0 | 8.0 | 0.00 | 0.00 | 0.00 | 49 | 1000.4 |
| 20260504224545 | 81 | 223 | 5.0 | 9.0 | 0.00 | 0.00 | 0.00 | 47 | 1000.4 |
| 20260504223046 | 81 | 222 | 4.0 | 10.0 | 0.00 | 0.00 | 0.00 | 45 | 1000.4 |
| 20260504221553 | 82 | 256 | 4.0 | 9.0 | 0.00 | 0.00 | 0.00 | 44 | 1000.3 |
| 20260504220043 | 82 | 234 | 4.0 | 12.0 | 0.00 | 0.00 | 0.00 | 44 | 1000.4 |
| 20260504214543 | 81 | 270 | 3.0 | 9.0 | 0.00 | 0.00 | 0.00 | 44 | 1000.6 |
| 20260504213041 | 81 | 170 | 3.0 | 11.0 | 0.00 | 0.00 | 0.00 | 46 | 1000.7 |
| 20260504211548 | 82 | 257 | 4.0 | 9.0 | 0.00 | 0.00 | 0.00 | 43 | 1000.7 |
| 20260504210059 | 81 | 237 | 6.0 | 13.0 | 0.00 | 0.00 | 0.00 | 42 | 1000.7 |
| 20260504204546 | 82 | 161 | 4.0 | 10.0 | 0.00 | 0.00 | 0.00 | 43 | 1000.8 |
| 20260504203042 | 82 | 225 | 2.0 | 10.0 | 0.00 | 0.00 | 0.00 | 49 | 1001.1 |
| 20260504201533 | 81 | 250 | 3.0 | 11.0 | 0.00 | 0.00 | 0.00 | 45 | 1001.3 |
| 20260504200032 | 82 | 232 | 4.0 | 9.0 | 0.00 | 0.00 | 0.00 | 45 | 1001.4 |
| 20260504194546 | 81 | 230 | 3.0 | 10.0 | 0.00 | 0.00 | 0.00 | 45 | 1001.5 |
| 20260504193030 | 80 | 308 | 4.0 | 11.0 | 0.00 | 0.00 | 0.00 | 49 | 1001.5 |
| 20260504191535 | 80 | 151 | 4.0 | 11.0 | 0.00 | 0.00 | 0.00 | 48 | 1001.4 |
| 20260504190029 | 79 | 209 | 3.0 | 10.0 | 0.00 | 0.00 | 0.00 | 52 | 1001.6 |
| 20260504184530 | 79 | 281 | 2.0 | 9.0 | 0.00 | 0.00 | 0.00 | 50 | 1001.7 |
| 20260504183021 | 78 | 180 | 5.0 | 11.0 | 0.00 | 0.00 | 0.00 | 51 | 1001.8 |
| 20260504181519 | 78 | 205 | 4.0 | 11.0 | 0.00 | 0.00 | 0.00 | 52 | 1001.8 |
| 20260504180019 | 77 | 244 | 6.0 | 11.0 | 0.00 | 0.00 | 0.00 | 50 | 1001.9 |
| 20260504174514 | 77 | 274 | 4.0 | 11.0 | 0.00 | 0.00 | 0.00 | 53 | 1002.0 |
| 20260504173018 | 76 | 200 | 7.0 | 12.0 | 0.00 | 0.00 | 0.00 | 52 | 1002.1 |
| 20260504171509 | 75 | 289 | 4.0 | 7.0 | 0.00 | 0.00 | 0.00 | 52 | 1002.2 |
| 20260504081557 | 57 | 296 | 0.0 | 0.0 | 0.00 | 0.00 | 0.00 | 75 | 1004.7 |
| 20260504044528 | 66 | 360 | 0.0 | 4.0 | 0.00 | 0.00 | 0.00 | 60 | 1006.6 |
| 20260504043024 | 67 | 360 | 2.0 | 5.0 | 0.00 | 0.00 | 0.00 | 59 | 1007.1 |
| 20260504041523 | 65 | 360 | 2.0 | 9.0 | 0.00 | 0.00 | 0.00 | 63 | 1008.1 |
| 20260504040029 | 61 | 338 | 4.0 | 6.0 | 0.00 | 0.00 | 0.00 | 79 | 1007.9 |
| 20260504034536 | 61 | 329 | 0.0 | 2.0 | 0.00 | 0.00 | 0.00 | 81 | 1007.3 |
| 20260504033027 | 60 | 329 | 1.0 | 3.0 | 0.00 | 0.00 | 0.00 | 79 | 1007.8 |
| 20260504031521 | 61 | 305 | 0.0 | 1.0 | 0.00 | 0.00 | 0.00 | 80 | 1007.5 |
| 20260504030034 | 61 | 305 | 0.0 | 4.0 | 0.00 | 0.00 | 0.00 | 79 | 1007.9 |